Yakima, WA
on Thursday, January 24, 2013

Thursday
Previous Day Next Day
Daily Summary
 ActualAverageRecord
Temperature
Mean Temperature °F 32°F  
Max Temperature 34°F 41°F 57°F (1984)
Min Temperature 16°F 24°F -11°F (1949)
Degree Days
Heating Degree Days 40 33  
Month to date heating degree days 860 834  
Since 1 July heating degree days 3074 3497  
Cooling Degree Days 0 0  
Month to date cooling degree days 0 0  
Year to date cooling degree days 0 0  
Moisture
Dew Point 22°F   
Average Humidity 81    
Maximum Humidity 92    
Minimum Humidity 69    
Precipitation
Precipitation T in 0.03 in 0.36 in (1959)
Month to date precipitation 0.10 0.92  
Year to date precipitation 0.10 0.92  
Snow
Snow T in 0.10 in 2.70 in (1972)
Month to date snowfall 1.1 4.5  
Year to date snowfall 1.1 4.5  
Since 1 July snowfall 15.3 17.5  
Snow Depth 0.00 in   
Wind
Wind Speed 2 mph   
Max Wind Speed 8 mph   
Max Gust Speed mph   
Visibility 4 miles   
Events Fog , Snow   

Key: T is trace of precipitation, MM is missing value
Source: NWS Daily Summary
Time(PST)TemperatureDew PointHumidity Pressure Visibility Wind DirectionWind SpeedGust SpeedPrecipitationEvents Conditions
12:53 AM 19.0°F 14.0°F 81% 30.20 in 5.0 miles West 5.8 mph - N/A   Haze
1:53 AM 17.1°F 12.0°F 81% 30.23 in 5.0 miles West 6.9 mph - N/A   Haze
2:53 AM 18.0°F 14.0°F 84% 30.24 in 6.0 miles West 6.9 mph - N/A   Partly Cloudy
3:08 AM 19.4°F 15.8°F 86% 30.20 in 6.0 miles West 8.1 mph - N/A   Haze
3:53 AM 21.0°F 17.1°F 85% 30.26 in 5.0 miles West 5.8 mph - N/A   Overcast
4:07 AM 21.2°F 17.6°F 86% 30.21 in 5.0 miles WNW 3.5 mph - N/A   Overcast
4:53 AM 24.1°F 19.0°F 81% 30.26 in 5.0 miles West 5.8 mph - N/A   Haze
5:34 AM 24.8°F 19.4°F 80% 30.21 in 4.0 miles WNW 6.9 mph - N/A   Overcast
5:53 AM 24.1°F 21.0°F 88% 30.27 in 4.0 miles NW 4.6 mph - N/A   Overcast
6:22 AM 24.8°F 19.4°F 80% 30.23 in 2.5 miles NW 5.8 mph - N/A   Overcast
6:35 AM 24.8°F 19.4°F 80% 30.25 in 1.0 miles WNW 5.8 mph - N/A   Overcast
6:43 AM 24.8°F 19.4°F 80% 30.24 in 0.8 miles WNW 4.6 mph - 0.00 in Snow Light Snow
6:53 AM 24.1°F 19.9°F 84% 30.29 in 0.8 miles NW 4.6 mph - 0.00 in   Overcast
7:53 AM 23.0°F 19.9°F 88% 30.29 in 0.2 miles WSW 3.5 mph - N/A Fog Light Freezing Fog
8:17 AM 23.0°F 19.4°F 86% 30.25 in 0.2 miles Calm Calm - N/A Fog Light Freezing Fog
8:38 AM 23.0°F 19.4°F 86% 30.25 in 0.2 miles Calm Calm - N/A Fog Light Freezing Fog
8:53 AM 24.1°F 19.9°F 84% 30.31 in 0.5 miles Calm Calm - N/A   Overcast
9:15 AM 23.0°F 21.2°F 93% 30.27 in 0.2 miles Calm Calm - N/A Fog Light Freezing Fog
9:37 AM 24.8°F 19.4°F 80% 30.26 in 0.5 miles Calm Calm - N/A   Overcast
9:53 AM 24.1°F 21.0°F 88% 30.31 in 1.2 miles Calm Calm - N/A   Overcast
10:09 AM 24.8°F 21.2°F 86% 30.27 in 0.8 miles WSW 4.6 mph - N/A   Overcast
10:38 AM 24.8°F 21.2°F 86% 30.27 in 0.2 miles WSW 3.5 mph - 0.00 in Fog , Snow Light Snow
10:53 AM 25.0°F 21.9°F 88% 30.32 in 0.5 miles Calm Calm - 0.00 in   Overcast
11:53 AM 27.0°F 23.0°F 85% 30.29 in 1.5 miles Calm Calm - 0.00 in   Overcast
12:40 PM 26.6°F 23.0°F 86% 30.23 in 3.0 miles West 4.6 mph - N/A   Overcast
12:53 PM 27.0°F 24.1°F 89% 30.27 in 3.0 miles Calm Calm - N/A   Overcast
1:30 PM 28.4°F 24.8°F 86% 30.20 in 3.0 miles Calm Calm - N/A   Haze
1:53 PM 28.9°F 24.1°F 82% 30.24 in 4.0 miles Calm Calm - N/A   Haze
2:53 PM 33.1°F 24.1°F 70% 30.24 in 6.0 miles Calm Calm - N/A   Haze
3:53 PM 33.1°F 25.0°F 72% 30.24 in 6.0 miles Calm Calm - N/A   Haze
4:53 PM 33.1°F 25.0°F 72% 30.24 in 6.0 miles Calm Calm - N/A   Haze
5:53 PM 33.1°F 26.1°F 75% 30.22 in 7.0 miles Calm Calm - N/A   Mostly Cloudy
6:33 PM 33.8°F 26.6°F 75% 30.19 in 6.0 miles Calm Calm - N/A   Haze
6:53 PM 33.1°F 27.0°F 78% 30.24 in 6.0 miles Calm Calm - N/A   Haze
7:17 PM 33.8°F 26.6°F 75% 30.19 in 6.0 miles ESE 3.5 mph - N/A   Haze
7:53 PM 32.0°F 26.1°F 79% 30.21 in 6.0 miles Calm Calm - N/A   Haze
8:53 PM 30.9°F 26.1°F 82% 30.22 in 6.0 miles Calm Calm - N/A   Haze
9:53 PM 30.9°F 25.0°F 79% 30.22 in 5.0 miles WSW 3.5 mph - N/A   Haze
10:53 PM 30.9°F 26.1°F 82% 30.21 in 5.0 miles Calm Calm - N/A   Haze
11:25 PM 30.2°F 24.8°F 80% 30.17 in 5.0 miles Calm Calm - N/A   Haze
11:53 PM 30.0°F 26.1°F 85% 30.21 in 4.0 miles Calm Calm - N/A   Mostly Cloudy
Moon Phase
Jan. 24 Jan. 26 Feb. 03 Feb. 10 Feb. 17
Sunrise:07:34 AM (PST) Moon Rise:02:59 PM (PST)1/24
Sunset:04:54 PM (PST) Moon Set:05:38 AM (PST)1/24

Copyright © 2014 The Weather Underground, Inc.